To NAV CANADA Home Page Login to a new session Search on AWWS site Feedback and Comments Disclaimer Vers la page française équivalente Tips FAQ What's new on the site To the Forecasts and Observations / NOTAM section To "File a Flight Plan" website Publications and other links Update of the User's profile FIC Telephone Numbers My Weather Data Folder Route Weather Data Regional Weather Data Local Weather Data To the Forecasts and Observations / NOTAM section
Request Generated 04/30/2017 at 05:01:46 UTC . Weather information available at that time is displayed.

METAR/TAF

PANGNIRTUNG/NU    (show WxCam)

LWIS CYXP 300400Z AUTO 09004KT 050V150 M09/M12 A2960=
LWIS CYXP 300300Z AUTO 10003KT 050V160 M09/M12 A2959=
LWIS CYXP 300200Z AUTO 08005KT M09/M12 A2958=

*** REMARK        : Forecast period has ended; this was the last TAF issued
*** REMARQUE : La période de prévision est échue; ceci était le dernier TAF qui a été émis
TAF AMD CYXP 291727Z 2917/2919 VRB03KT 5SM -SN SCT015 OVC030 TEMPO
2917/2919 2SM -SN OVC015
RMK NXT FCST WILL BE ISSUED AT 301745Z=
Your time UTC time
Weather data provided by Environment Canada and NAV CANADA